Temp
29 28 27 28 29 30 29 29 29 30 31 29 28 27 28 28 28 27 27 27 28 27 27 27 26 26 26 26 26 26 25 25 25 24 24 24 24 24 24 24 23 23 23 23
28 27 29 30 30 30 31 30 30 32 30 29 27 27 29 28 28 28 28 28 28 27 26 26 26 26 26 27 27 26 26 25 25 25 25 24 24 24 23 23 23 24 24 23
26 29 30 31 31 31 30 30 30 30 30 29 28 27 27 28 29 29 29 29 28 27 26 26 26 26 26 26 26 27 26 26 27 25 25 24 23 23 23 23 24 23 23 23
28 30 31 31 31 31 30 31 32 31 30 28 29 25 26 27 28 29 29 29 28 28 27 26 26 25 25 27 27 27 27 27 26 25 24 24 23 23 23 23 24 23 23 23
28 30 30 31 31 32 31 31 31 31 30 28 28 26 26 27 26 28 29 29 29 28 27 27 26 26 26 27 27 27 27 26 26 25 24 24 23 23 23 23 23 23 23 23
29 31 31 31 32 32 33 33 27 25 25 26 28 28 26 26 29 29 30 29 29 28 28 27 27 27 26 26 27 28 27 26 26 25 24 24 23 23 23 23 23 23 23 23
30 31 32 33 32 31 31 28 26 27 26 25 26 27 29 28 30 31 30 28 29 29 28 27 27 26 25 25 26 27 27 26 25 25 24 24 24 24 24 23 23 22 22 22
26 28 30 32 30 30 28 27 24 27 25 27 25 27 30 31 31 32 31 30 29 28 28 27 27 26 26 26 25 25 25 25 25 25 24 24 24 24 23 23 23 22 22 22
24 26 31 31 32 30 30 27 28 26 25 25 25 28 30 30 29 31 31 30 29 29 28 27 27 27 27 26 25 25 24 24 24 25 24 24 24 24 23 23 22 22 22 22
27 27 28 32 31 31 31 28 29 23 27 28 27 30 28 32 29 28 30 29 29 29 28 28 27 27 26 26 26 25 24 23 24 24 24 24 25 24 23 23 22 22 22 21
25 26 29 31 29 31 29 28 26 25 24 26 26 27 26 31 28 27 28 30 30 30 28 28 27 27 26 26 26 25 24 23 23 24 24 24 24 24 23 23 22 22 21 21
26 25 28 29 29 31 29 29 28 29 26 23 25 26 29 28 27 29 29 29 29 30 28 28 28 28 27 26 26 25 23 23 23 24 24 24 24 23 23 22 22 22 21 21
25 23 25 26 28 30 30 28 26 24 22 24 26 27 28 28 27 27 28 26 26 27 27 28 28 27 28 26 26 25 23 23 22 23 24 24 24 23 23 23 22 22 22 21
28 22 29 29 29 28 31 30 26 28 25 25 25 29 30 28 27 26 26 25 26 27 27 27 27 27 28 27 26 24 23 22 21 22 23 24 23 22 23 23 22 22 22 21
29 26 24 30 31 29 31 31 28 28 29 30 30 27 28 27 27 27 28 26 25 26 26 26 27 27 26 26 25 23 23 22 22 22 21 22 22 22 23 23 23 22 22 21
25 26 25 27 28 30 31 31 31 30 28 30 28 28 27 29 26 27 28 27 26 24 25 26 26 24 23 25 24 23 23 22 21 21 20 19 18 20 20 22 23 22 22 22
24 27 24 29 29 29 29 30 31 30 30 30 29 28 25 28 27 27 26 26 27 26 24 23 23 22 23 25 24 23 23 22 20 20 19 18 20 20 20 20 21 22 22 22
24 26 23 29 27 28 31 30 30 28 29 28 28 29 27 29 29 28 26 26 25 26 25 24 23 23 26 26 25 24 23 22 20 20 18 19 18 17 19 19 21 22 23 21
20 22 21 26 26 30 28 27 26 27 29 27 27 27 27 26 28 28 27 27 26 25 24 24 27 27 28 27 26 24 22 21 19 19 19 20 19 18 18 19 21 22 21 22
21 19 23 21 26 27 26 24 24 22 25 26 26 26 25 27 29 25 27 27 27 26 26 25 27 26 27 27 26 23 20 19 19 19 18 18 19 19 19 20 21 22 23 22
19 19 20 21 22 24 22 21 23 27 25 21 23 24 25 24 23 24 24 25 26 26 27 26 27 28 27 24 23 20 19 19 19 19 19 19 19 19 19 19 18 18 20 21
19 20 18 19 20 23 22 22 24 22 21 23 22 21 21 21 22 22 22 22 23 24 25 25 23 21 22 22 23 19 18 19 19 20 20 20 19 19 20 20 20 20 17 16
21 20 20 18 19 19 18 19 19 19 19 21 22 22 23 23 22 22 21 21 21 20 20 20 20 18 19 20 21 18 17 18 19 19 19 19 20 20 21 20 21 20 17 15
20 18 19 19 21 20 19 19 19 20 20 20 20 21 22 22 22 21 20 19 19 17 17 17 17 16 15 17 18 18 17 19 20 19 19 20 21 20 19 20 20 18 15 15
19 19 18 18 20 19 20 19 19 19 20 20 21 21 21 21 22 22 21 19 18 17 17 17 15 15 15 17 19 19 19 20 19 20 21 21 21 18 18 17 16 15 15 15
18 17 17 18 18 18 19 19 21 20 20 21 21 21 20 21 21 21 21 19 18 17 16 16 16 16 17 17 17 18 19 20 21 20 19 18 17 17 18 16 14 14 14 15
Height
729 748 762 754 749 753 763 774 777 762 754 769 777 779 771 770 775 779 778 780 779 779 778 782 785 790 795 798 801 805 808 811 815 817 818 820 820 821 822 824 825 826 826 827
741 755 733 732 739 749 755 770 777 761 756 767 778 779 770 768 768 767 770 773 773 774 777 780 784 788 792 794 798 802 806 809 811 812 814 817 818 819 820 821 823 824 825 826
748 736 724 731 740 750 758 766 767 768 762 764 777 793 784 771 765 764 763 762 766 768 771 775 779 783 788 792 795 798 801 804 807 809 813 815 816 817 818 819 820 821 822 824
736 718 725 733 739 740 764 740 742 758 771 797 766 819 788 775 771 765 760 760 761 764 766 769 773 778 781 786 790 794 798 800 803 806 808 811 813 815 816 817 818 819 822 823
734 721 729 734 730 726 745 732 742 750 765 779 783 800 782 771 780 762 752 752 753 756 759 764 766 770 773 780 785 790 794 797 800 802 804 807 810 812 814 815 818 819 820 822
718 701 710 718 713 718 715 731 754 769 779 803 776 782 789 778 755 744 745 743 743 748 752 757 761 768 772 776 780 784 787 790 794 798 801 802 805 808 810 813 814 816 818 819
718 716 704 700 719 719 729 760 801 802 806 807 771 783 763 742 727 721 727 732 732 737 744 749 757 762 766 768 770 775 779 784 788 791 795 798 800 803 807 810 811 813 814 815
748 748 714 701 716 734 741 755 798 812 820 791 776 788 745 714 711 709 713 719 726 732 735 741 746 750 755 761 766 770 773 778 782 787 790 795 797 799 803 807 808 810 812 812
748 742 700 700 700 713 733 757 739 773 780 791 781 753 723 714 713 708 710 717 723 723 728 732 739 743 750 755 758 761 767 773 777 782 787 791 794 798 801 804 806 807 809 810
717 738 710 698 698 702 711 720 756 774 788 789 776 753 756 716 714 711 713 715 712 714 721 726 731 737 742 746 751 756 761 768 771 776 782 787 790 794 798 800 801 803 806 808
710 721 718 699 713 714 723 734 740 750 766 783 788 768 721 706 706 708 704 699 701 706 712 717 723 728 732 739 746 750 756 760 764 770 774 782 787 791 795 796 798 800 801 803
697 716 726 713 693 686 700 713 721 744 764 768 766 759 696 696 696 693 696 696 695 698 705 710 714 719 727 732 739 743 749 752 755 762 770 774 780 786 790 791 793 796 797 798
691 721 738 728 707 692 701 706 714 730 741 760 763 753 695 693 692 691 696 697 696 698 702 706 713 717 720 726 731 735 740 743 748 755 759 765 771 779 782 785 790 792 794 797
663 708 698 712 706 698 703 699 707 708 743 745 742 720 699 697 694 691 690 695 692 692 694 699 706 709 712 717 722 729 735 739 742 745 749 754 762 772 776 778 781 785 790 795
659 695 698 678 677 688 688 690 700 706 700 713 707 716 697 692 687 681 674 683 692 693 695 697 697 699 704 712 718 724 727 729 731 735 742 747 753 766 772 775 777 780 783 789
657 684 685 691 678 678 687 682 683 687 695 688 698 702 678 668 677 679 675 677 683 690 688 690 694 700 702 706 711 715 719 721 723 729 740 756 752 772 781 781 779 777 777 783
667 667 693 689 677 685 701 682 676 678 673 678 698 683 675 679 679 675 676 675 675 680 686 690 692 696 700 704 708 711 713 717 723 736 742 752 768 758 766 771 776 774 771 774
666 666 684 677 688 715 669 654 655 671 673 669 672 666 663 661 660 664 666 668 676 677 680 683 687 691 694 698 702 706 710 711 721 730 738 742 751 766 762 767 767 768 766 770
661 671 694 692 697 677 676 672 678 683 679 670 670 667 663 663 668 670 665 668 670 674 678 678 681 686 689 693 696 699 704 707 717 723 729 734 736 750 756 756 758 761 765 766
661 669 674 698 695 703 683 678 671 675 697 663 661 663 668 664 689 684 668 670 674 675 676 679 684 686 686 689 694 698 702 707 713 723 727 732 740 749 750 750 753 756 757 762
689 689 697 695 702 694 687 679 663 693 707 677 668 667 670 680 686 678 672 675 676 680 680 682 682 682 684 688 688 699 706 708 713 718 725 733 740 744 747 754 761 763 757 757
698 697 711 709 708 707 679 672 689 694 687 685 678 676 675 677 680 680 682 683 681 679 681 680 683 688 688 689 687 696 703 706 711 717 721 726 731 736 741 745 747 754 763 763
697 692 703 716 711 696 692 692 692 692 693 684 677 677 672 674 681 684 686 686 686 688 685 689 687 687 691 690 691 697 705 709 715 720 724 729 733 735 737 740 746 749 755 760
683 687 706 706 697 696 694 694 693 692 693 687 682 680 677 682 684 684 690 693 690 694 692 694 689 693 699 697 697 702 710 712 716 722 725 728 730 731 734 737 740 744 749 754
682 692 702 702 696 696 692 695 693 693 694 689 685 688 687 682 683 681 690 698 697 697 695 694 696 701 704 701 703 706 710 711 717 721 725 726 728 729 732 737 741 743 744 747
688 691 705 705 691 690 696 698 694 703 702 696 690 698 698 692 685 685 684 691 701 694 700 696 702 704 703 707 709 707 711 714 719 720 722 724 727 730 733 735 738 742 744 743
Wind_Speed
4 4 7 11 9 7 10 8 17 10 8 5 8 8 20 20 17 16 15 14 14 14 16 24 29 30 33 33 33 34 33 31 25 23 19 15 14 13 12 11 11 11 9 7
3 8 12 6 7 9 8 9 13 2 9 5 7 8 18 20 21 20 20 17 18 14 10 17 23 26 30 34 34 32 31 29 26 24 21 14 9 10 11 9 7 7 8 9
7 6 8 7 6 8 5 8 10 8 10 5 9 4 12 13 10 15 16 18 16 17 17 15 20 26 30 31 34 31 32 27 25 24 19 14 9 8 7 9 9 11 11 9
6 7 7 5 6 7 5 8 8 10 17 8 8 5 8 13 15 14 16 17 17 16 16 15 20 24 29 36 35 33 30 28 27 25 22 19 16 12 10 10 7 14 10 8
8 7 7 5 7 8 9 9 9 9 15 5 5 4 6 13 10 21 20 19 19 18 19 18 21 31 36 36 37 32 30 29 28 28 25 21 18 13 10 13 14 13 11 10
10 4 7 10 6 9 2 4 8 6 5 5 12 8 5 10 27 26 17 18 21 20 20 19 29 27 28 31 37 35 34 32 30 29 26 24 21 16 16 19 17 13 12 10
4 8 4 3 4 4 5 7 2 3 2 6 9 7 11 18 24 28 26 21 21 21 21 20 19 23 26 33 39 41 39 38 35 32 29 26 22 20 20 22 18 15 13 12
7 9 9 3 8 8 7 10 6 7 5 6 7 7 12 18 20 24 20 20 16 19 20 21 22 28 32 32 32 34 39 41 40 35 32 26 23 22 21 20 18 16 16 14
7 8 3 6 6 11 4 4 9 5 1 3 5 6 8 7 11 19 23 15 18 19 21 22 21 30 32 33 35 40 37 36 40 39 33 28 23 21 19 19 16 15 14 13
8 3 7 13 5 6 13 7 1 2 6 5 4 3 5 6 6 12 15 17 20 20 19 19 19 27 33 36 38 36 37 36 39 41 35 31 26 23 21 20 19 18 16 15
8 6 6 4 8 12 3 3 3 5 4 7 4 7 9 8 8 14 18 22 21 19 19 18 18 30 35 35 34 35 34 36 41 44 40 33 27 23 22 21 19 19 18 17
10 7 12 14 5 3 7 10 9 7 6 1 4 7 3 9 9 14 16 16 14 16 17 19 19 28 28 32 32 33 32 36 43 46 42 36 30 26 25 23 21 20 20 18
9 4 7 8 4 1 4 5 6 3 4 9 6 6 1 4 7 10 10 10 13 15 14 16 14 16 26 28 31 33 33 37 40 45 47 40 35 33 31 26 23 23 21 20
16 6 15 16 9 5 5 6 8 8 5 6 7 7 4 7 9 9 10 11 15 17 19 16 16 18 26 30 29 30 31 34 35 43 49 47 42 40 35 30 29 28 24 21
15 9 8 19 16 6 7 9 7 9 12 10 11 10 10 12 12 15 16 10 12 15 14 16 18 17 20 22 24 28 32 35 41 44 43 46 45 40 36 32 32 31 26 22
4 7 10 8 11 15 11 14 13 17 2 3 6 7 7 11 4 7 12 12 11 11 16 15 13 8 10 19 22 28 31 34 38 39 33 13 17 25 20 26 31 32 27 22
6 11 6 17 6 6 4 11 6 6 5 7 5 10 7 4 7 12 10 11 15 10 9 9 10 9 11 18 25 28 33 32 31 25 24 25 29 27 47 40 40 33 32 28
5 8 3 12 6 6 10 1 7 11 3 2 5 2 11 16 18 7 6 13 9 9 9 9 8 10 23 26 28 26 30 35 25 27 30 38 40 42 40 38 41 35 32 28
4 5 2 7 7 2 4 5 4 6 5 4 5 4 4 7 5 4 1 0 9 9 7 8 16 16 18 20 27 30 30 29 25 32 38 42 43 47 35 30 34 36 28 24
4 4 5 3 8 6 2 10 11 7 3 8 7 3 6 8 9 5 2 4 5 5 6 9 12 11 7 9 22 27 23 23 23 22 27 32 32 28 31 32 33 34 27 30
5 4 4 2 4 2 8 17 7 6 4 9 6 5 2 6 2 0 7 7 4 3 6 7 5 3 3 9 22 15 17 18 19 18 19 21 11 13 10 5 9 16 24 26
3 2 3 3 5 2 14 3 6 1 6 2 5 6 15 10 9 9 8 8 8 8 8 5 4 3 5 17 19 22 20 21 22 20 18 13 10 10 8 4 2 9 29 34
1 3 4 3 4 2 5 5 5 2 3 6 11 7 14 16 10 9 8 9 8 8 10 10 4 10 8 12 18 22 19 20 19 19 16 13 12 9 7 7 12 18 18 31
2 5 5 3 1 3 6 4 5 4 4 5 8 9 11 9 8 10 8 6 5 5 5 4 11 12 10 14 18 24 22 23 20 18 14 11 12 8 4 9 15 17 21 27
2 7 5 2 3 2 6 5 4 7 6 7 9 8 5 8 7 8 5 4 1 3 7 10 13 11 12 21 26 27 26 24 22 20 12 9 12 7 5 4 8 12 18 22
1 6 4 4 4 7 6 3 5 6 7 11 14 12 12 11 11 9 7 3 7 5 9 15 15 20 24 25 26 27 27 23 19 13 10 9 7 3 6 8 6 7 10 9
Wind_Direction
191 140 189 193 184 154 143 182 199 209 188 138 199 160 175 181 187 191 196 201 205 207 196 190 194 189 192 192 195 199 200 206 204 206 212 223 234 235 237 243 248 248 242 249
93 208 211 178 157 141 156 169 202 300 156 102 182 196 186 185 196 193 194 199 205 207 183 183 192 192 189 195 201 202 205 206 206 213 216 225 241 242 245 247 237 225 220 212
164 234 152 174 159 145 168 173 188 185 161 49 116 348 207 218 215 212 206 208 207 200 189 185 183 187 196 197 201 204 204 205 214 215 215 222 228 230 225 229 232 214 211 195
213 233 178 173 183 141 195 206 210 153 161 189 168 217 224 211 222 221 215 211 208 203 199 188 184 187 193 203 205 206 206 207 215 215 212 213 218 221 221 230 214 179 182 185
227 216 162 176 197 142 227 155 198 174 184 113 209 103 255 167 226 229 215 211 206 199 195 195 190 192 196 200 204 205 206 210 214 209 212 211 215 220 214 186 176 180 182 190
209 232 164 189 182 175 191 104 42 41 133 202 199 182 237 182 213 225 217 214 203 198 199 196 198 194 192 197 201 205 206 210 208 209 211 211 210 214 198 192 190 192 191 197
194 236 244 151 230 141 99 83 326 341 351 214 196 194 232 207 216 215 207 207 200 196 197 195 190 189 192 195 199 203 207 209 207 208 209 212 211 205 195 197 200 195 193 193
173 228 205 197 186 170 180 162 162 192 199 228 111 206 237 224 223 222 210 204 194 196 196 196 193 190 197 199 200 199 204 207 208 207 207 208 201 199 202 208 211 203 190 183
169 251 283 201 192 152 200 156 196 142 354 121 206 266 324 265 218 212 208 187 199 196 195 198 196 195 197 200 201 200 205 205 208 207 205 200 200 200 198 200 193 193 202 205
211 205 224 249 185 228 197 167 104 354 172 231 258 245 228 288 234 208 194 197 201 200 194 199 196 194 201 203 206 203 203 204 206 206 203 201 198 201 207 207 209 207 210 209
156 152 254 162 202 214 150 175 83 131 145 175 226 256 212 226 211 192 197 200 199 193 195 195 197 197 202 203 202 202 200 199 206 207 200 198 201 202 209 204 204 208 209 203
204 178 233 229 228 197 183 205 176 207 247 166 174 262 247 240 205 191 195 196 193 195 191 196 197 198 199 202 201 200 199 199 205 205 197 196 199 203 206 207 211 211 211 209
170 205 209 317 316 107 173 191 175 125 95 189 160 253 287 234 173 192 186 182 181 199 191 198 196 201 205 202 202 200 198 201 199 200 198 195 197 205 208 208 213 214 216 217
167 144 206 223 220 158 191 190 192 164 157 171 211 216 249 223 191 191 200 176 183 192 197 190 194 205 209 208 200 197 200 201 197 196 196 196 199 206 211 211 215 219 220 224
164 191 173 227 216 197 240 245 183 192 200 179 220 198 216 205 199 199 196 178 169 195 197 196 199 201 205 204 193 194 202 199 198 197 195 197 198 203 217 213 217 220 219 220
197 208 169 218 210 198 223 246 238 224 202 140 131 229 237 201 74 141 188 176 181 179 195 198 202 199 198 197 192 196 202 203 200 200 198 178 177 199 236 237 227 222 218 223
167 189 129 230 183 171 234 231 204 197 164 153 147 215 158 184 196 193 191 190 190 183 173 180 192 186 186 191 192 199 205 207 206 195 180 162 175 206 223 229 230 225 219 218
173 205 153 213 105 197 245 267 187 129 104 87 279 201 184 190 204 206 232 167 165 167 174 192 182 194 214 213 206 203 204 208 191 178 164 166 184 221 223 222 223 227 226 223
128 133 132 168 182 160 332 33 46 358 166 205 198 207 215 110 73 359 134 346 167 168 167 168 175 193 206 208 208 199 198 203 180 172 175 194 198 212 216 218 223 228 230 232
80 80 120 138 146 167 314 327 328 307 340 21 22 69 134 113 172 226 82 79 81 139 148 150 168 183 184 213 203 194 189 192 198 181 188 195 205 214 213 220 224 229 233 239
347 2 63 12 107 90 0 313 293 76 239 331 1 19 81 83 184 354 73 54 50 51 51 77 115 161 239 181 175 164 170 182 196 203 192 195 199 200 204 240 279 296 253 246
70 53 15 334 70 2 345 359 79 310 335 157 62 68 79 85 56 50 47 38 32 31 15 54 95 64 141 171 161 154 159 178 194 195 193 180 169 175 162 157 109 329 315 291
71 152 114 229 169 251 326 38 332 350 307 359 69 67 75 67 63 45 29 8 0 9 8 354 90 98 125 151 163 139 153 158 161 162 151 156 167 160 169 170 191 165 207 257
102 107 153 196 241 130 60 18 19 360 27 30 35 47 55 68 52 72 40 17 33 21 41 58 83 91 91 138 143 143 141 142 149 137 139 158 180 193 186 197 220 235 224 226
130 125 169 37 101 140 61 83 14 355 357 37 40 36 33 48 28 71 82 38 157 135 80 92 101 110 127 142 139 142 148 149 152 157 176 202 233 218 170 250 229 227 227 224
300 133 166 218 197 123 113 3 70 55 36 39 56 27 5 31 38 17 16 7 281 89 155 126 147 156 154 149 150 148 146 144 155 177 202 221 219 217 238 222 205 207 210 193